Sturgis, MI

2:00 AM EDT on August 24, 2016 (GMT -0400)
Kirsch Municipal

Weather History for KIRS - December, 2012

Change the Weather History Date:

Sunday, December 23, 2012

  Actual Average (KHAI) Record (KHAI)
Temperature  
Mean Temperature 26 °F -  
Max Temperature 33 °F 33 °F 61 °F (2015)
Min Temperature 19 °F 20 °F -14 °F (1983)
Degree Days  
Heating Degree Days 39    
Moisture  
Dew Point 21 °F    
Average Humidity 85    
Maximum Humidity 93    
Minimum Humidity 70    
Precipitation  
Precipitation 0.00 in - - ()
Sea Level Pressure  
Sea Level Pressure 29.94 in    
Wind  
Wind Speed 2 mph (NNE)    
Max Wind Speed 9 mph    
Max Gust Speed 16 mph    
Visibility 10 miles    
Events      
Averages and records for this station are not official NWS values.
T = Trace of Precipitation, MM = Missing Value Source: NWS Daily Summary

Daily Weather History Graph

Daily Weather History Graph

Search for Another Location

Airport or City:

Trip Planner

Search our weather history database for the weather conditions in past years. The results will help you decide how hot, cold, wet, or windy it might be!

Date:

Astronomy

Dec. 23, 2012 Rise Set
Actual Time 8:06 AM EST 5:15 PM EST
Civil Twilight 7:35 AM EST 5:47 PM EST
Nautical Twilight 7:00 AM EST 6:22 PM EST
Astronomical Twilight 6:26 AM EST 6:56 PM EST
Moon 2:07 PM EST (12/23) 3:46 AM EST (12/23)
Length of Visible Light 10h 11m
Length of Day
9h 08m
Waxing Gibbous, 81% of the Moon is Illuminated
Dec 23
Waxing Gibbous
Dec 28
Full
Jan 4
Last Quarter
Jan 11
New
Jan 18
First Quarter

Hourly Weather History & Observations

Time (EST) Temp. Windchill Dew Point Humidity Pressure Visibility Wind Dir Wind Speed Gust Speed Precip Events Conditions
12:14 AM 21.2 °F 16.4 °F 19.4 °F 93% 29.99 in 10.0 mi South 3.5 mph - N/A   Clear
12:35 AM 21.2 °F 14.9 °F 19.4 °F 93% 29.98 in 10.0 mi South 4.6 mph - N/A   Clear
12:55 AM 21.2 °F 16.4 °F 19.4 °F 93% 29.97 in 10.0 mi South 3.5 mph - N/A   Clear
1:15 AM 21.2 °F - 17.6 °F 86% 29.96 in 10.0 mi Calm Calm - N/A   Clear
1:35 AM 21.2 °F 14.9 °F 17.6 °F 86% 29.95 in 10.0 mi South 4.6 mph - N/A   Clear
1:55 AM 19.4 °F 12.8 °F 17.6 °F 93% 29.93 in 10.0 mi SSE 4.6 mph - N/A   Clear
2:15 AM 21.2 °F 14.9 °F 17.6 °F 86% 29.92 in 10.0 mi South 4.6 mph - N/A   Clear
2:35 AM 21.2 °F 16.4 °F 17.6 °F 86% 29.92 in 10.0 mi South 3.5 mph - N/A   Clear
2:54 AM 21.2 °F - 17.6 °F 86% 29.92 in 10.0 mi Calm Calm - N/A   Clear
3:15 AM 19.4 °F - 17.6 °F 93% 29.91 in 10.0 mi Calm Calm - N/A   Clear
3:35 AM 19.4 °F - 17.6 °F 93% 29.90 in 10.0 mi Calm Calm - N/A   Clear
3:54 AM 21.2 °F - 17.6 °F 86% 29.90 in 10.0 mi Calm Calm - N/A   Clear
4:15 AM 19.4 °F - 17.6 °F 93% 29.90 in 10.0 mi Calm Calm - N/A   Clear
4:35 AM 19.4 °F - 17.6 °F 93% 29.89 in 10.0 mi Calm Calm - N/A   Clear
4:54 AM 21.2 °F - 17.6 °F 86% 29.89 in 10.0 mi Calm Calm - N/A   Clear
5:15 AM 21.2 °F - 17.6 °F 86% 29.88 in 10.0 mi Calm Calm - N/A   Clear
5:35 AM 19.4 °F - 17.6 °F 93% 29.89 in 10.0 mi Calm Calm - N/A   Clear
5:54 AM 19.4 °F - 17.6 °F 93% 29.88 in 10.0 mi Calm Calm - N/A   Clear
6:15 AM 19.4 °F - 17.6 °F 93% 29.89 in 7.0 mi Calm Calm - N/A   Clear
6:34 AM 19.4 °F - 17.6 °F 93% 29.89 in 10.0 mi Calm Calm - N/A   Clear
6:55 AM 19.4 °F - 17.6 °F 93% 29.89 in 10.0 mi Calm Calm - N/A   Clear
7:15 AM 19.4 °F - 17.6 °F 93% 29.89 in 7.0 mi Calm Calm - N/A   Clear
7:34 AM 19.4 °F - 17.6 °F 93% 29.89 in 7.0 mi Calm Calm - N/A   Clear
7:55 AM 19.4 °F - 17.6 °F 93% 29.90 in 7.0 mi Calm Calm - N/A   Clear
8:15 AM 19.4 °F - 17.6 °F 93% 29.90 in 7.0 mi Calm Calm - N/A   Clear
8:35 AM 19.4 °F - 17.6 °F 93% 29.90 in 7.0 mi Calm Calm - N/A   Clear
8:55 AM 19.4 °F - 17.6 °F 93% 29.91 in 5.0 mi Calm Calm - N/A   Clear
9:15 AM 21.2 °F - 19.4 °F 93% 29.92 in 7.0 mi Calm Calm - N/A   Mostly Cloudy
9:35 AM 23.0 °F - 21.2 °F 93% 29.92 in 7.0 mi Calm Calm - N/A   Overcast
9:55 AM 24.8 °F - 21.2 °F 86% 29.92 in 10.0 mi Calm Calm - N/A   Overcast
10:14 AM 24.8 °F - 21.2 °F 86% 29.94 in 7.0 mi Calm Calm - N/A   Overcast
10:35 AM 26.6 °F - 23.0 °F 86% 29.95 in 7.0 mi Calm Calm - N/A   Overcast
10:55 AM 28.4 °F 24.6 °F 24.8 °F 86% 29.95 in 7.0 mi North 3.5 mph - N/A   Scattered Clouds
11:14 AM 30.2 °F 21.9 °F 24.8 °F 80% 29.95 in 10.0 mi North 9.2 mph - N/A   Clear
11:35 AM 30.2 °F - 24.8 °F 80% 29.95 in 10.0 mi Calm Calm - N/A   Clear
12:14 PM 30.2 °F 23.4 °F 24.8 °F 80% 29.95 in 10.0 mi North 6.9 mph - N/A   Clear
12:35 PM 32.0 °F 24.2 °F 24.8 °F 75% 29.94 in 10.0 mi NNE 9.2 mph - N/A   Clear
12:55 PM 32.0 °F 24.2 °F 24.8 °F 75% 29.94 in 10.0 mi North 9.2 mph 16.1 mph N/A   Clear
1:14 PM 33.8 °F 26.4 °F 24.8 °F 70% 29.94 in 10.0 mi North 9.2 mph - N/A   Clear
1:34 PM 32.0 °F 27.5 °F 24.8 °F 75% 29.94 in 10.0 mi NE 4.6 mph - N/A   Scattered Clouds
1:55 PM 33.8 °F 27.7 °F 24.8 °F 70% 29.93 in 10.0 mi NNW 6.9 mph - N/A   Scattered Clouds
2:15 PM 33.8 °F 29.6 °F 26.6 °F 75% 29.93 in 10.0 mi North 4.6 mph - N/A   Scattered Clouds
2:34 PM 33.8 °F 29.6 °F 26.6 °F 75% 29.93 in 10.0 mi NNE 4.6 mph - N/A   Scattered Clouds
2:55 PM 33.8 °F 29.6 °F 24.8 °F 70% 29.93 in 10.0 mi North 4.6 mph - N/A   Scattered Clouds
3:15 PM 33.8 °F - 26.6 °F 75% 29.93 in 10.0 mi Calm Calm - N/A   Scattered Clouds
3:34 PM 32.0 °F 27.5 °F 24.8 °F 75% 29.94 in 10.0 mi North 4.6 mph - N/A   Mostly Cloudy
3:55 PM 32.0 °F - 24.8 °F 75% 29.95 in 10.0 mi Calm Calm - N/A   Scattered Clouds
4:15 PM 32.0 °F - 24.8 °F 75% 29.96 in 10.0 mi Calm Calm - N/A   Scattered Clouds
4:34 PM 32.0 °F - 24.8 °F 75% 29.96 in 10.0 mi Calm Calm - N/A   Scattered Clouds
4:55 PM 32.0 °F - 24.8 °F 75% 29.96 in 10.0 mi Calm Calm - N/A   Scattered Clouds
5:15 PM 32.0 °F - 24.8 °F 75% 29.97 in 10.0 mi Calm Calm - N/A   Overcast
5:34 PM 30.2 °F - 24.8 °F 80% 29.97 in 10.0 mi Calm Calm - N/A   Overcast
5:55 PM 28.4 °F - 24.8 °F 86% 29.98 in 10.0 mi Calm Calm - N/A   Scattered Clouds
6:14 PM 28.4 °F - 24.8 °F 86% 29.98 in 10.0 mi Calm Calm - N/A   Scattered Clouds
6:35 PM 28.4 °F - 24.8 °F 86% 29.98 in 10.0 mi Calm Calm - N/A   Overcast
6:55 PM 28.4 °F - 24.8 °F 86% 29.98 in 10.0 mi Calm Calm - N/A   Mostly Cloudy
7:14 PM 28.4 °F - 24.8 °F 86% 29.99 in 10.0 mi Calm Calm - N/A   Mostly Cloudy
7:35 PM 28.4 °F 24.6 °F 24.8 °F 86% 29.99 in 10.0 mi NNE 3.5 mph - N/A   Mostly Cloudy
7:55 PM 28.4 °F 24.6 °F 24.8 °F 86% 30.00 in 10.0 mi North 3.5 mph - N/A   Scattered Clouds
8:14 PM 28.4 °F - 24.8 °F 86% 30.00 in 10.0 mi Calm Calm - N/A   Mostly Cloudy
8:35 PM 28.4 °F 23.3 °F 24.8 °F 86% 30.00 in 10.0 mi North 4.6 mph - N/A   Mostly Cloudy
8:55 PM 28.4 °F - 23.0 °F 80% 30.00 in 10.0 mi Calm Calm - N/A   Clear
9:14 PM 28.4 °F 24.6 °F 23.0 °F 80% 30.00 in 10.0 mi NNE 3.5 mph - N/A   Clear
9:55 PM 26.6 °F 22.6 °F 21.2 °F 80% 29.99 in 10.0 mi NE 3.5 mph - N/A   Clear
10:14 PM 26.6 °F 22.6 °F 21.2 °F 80% 29.99 in 10.0 mi NE 3.5 mph - N/A   Clear
10:35 PM 24.8 °F - 21.2 °F 86% 29.98 in 10.0 mi Calm Calm - N/A   Clear
10:54 PM 24.8 °F - 21.2 °F 86% 29.98 in 10.0 mi Calm Calm - N/A   Clear
11:15 PM 24.8 °F 20.5 °F 21.2 °F 86% 29.98 in 10.0 mi ENE 3.5 mph - N/A   Clear
11:34 PM 24.8 °F 19.1 °F 21.2 °F 86% 29.97 in 10.0 mi ENE 4.6 mph - N/A   Clear
11:55 PM 23.0 °F 15.8 °F 19.4 °F 86% 29.96 in 10.0 mi ENE 5.8 mph - N/A   Clear